User: anonymous   Login
Location: Unspecified
(0.0000°N, 0.0000°E)
Time: 18:23:55
(UTC+00:00)
Language:

STARLINK-32659 - Orbit

View from above orbital plane
View from above orbital plane
View from above satellite
View from above satellite

Ground track
Ground track

The orbit is defined by the following mean orbital elements,

1 62427U          26145.54178846 +.00000000 +00000-0 +64735-3 0 00003
2 62427  42.9983 240.3619 0000510 257.2283 102.8512 15.27596295    08
Epoch (UTC): 25 May 2026 13:00:10
Eccentricity: 0.0000510
inclination: 42.9983°
perigee height: 483 km
apogee height: 483 km
right ascension of ascending node: 240.3619°
argument of perigee: 257.2283°
revolutions per day: 15.27596295
mean anomaly at epoch: 102.8512°

The dashed part of the orbit path shows where the satellite is in the earth's shadow,  

DLR